Location: Vojnic
(45.3264°N, 15.6972°E)
Time: 04:06:41
(UTC+01:00)

USA 238 DEB - Visible Passes

Search period start: 27 February 2024 00:00
Search period end: 08 March 2024 00:00
Orbit: 926 x 1286 km, 63.4° (Epoch: 27 January)

Date Brightness Start Highest point End Pass type
(mag) Time Alt. Az. Time Alt. Az. Time Alt. Az.
27 Feb 5.8 02:27:10 14° E 02:27:10 14° E 02:30:00 10° ENE visible
27 Feb 3.5 04:14:38 49° SSW 04:16:28 79° SE 04:23:13 10° NE visible
27 Feb 4.6 06:02:31 10° W 06:08:08 30° NNW 06:14:10 10° NNE visible
28 Feb 4.0 03:31:34 51° SE 03:31:47 51° ESE 03:38:13 10° NE visible
28 Feb 4.2 05:19:01 21° W 05:22:53 40° NW 05:29:20 10° NNE visible
29 Feb 5.0 02:48:25 30° E 02:48:25 30° E 02:53:00 10° NE visible
29 Feb 3.7 04:35:52 42° W 04:37:47 57° NW 04:44:32 10° NNE visible
01 Mar 5.8 02:05:13 16° E 02:05:13 16° E 02:07:21 10° ENE visible
01 Mar 3.4 03:52:39 81° W 03:52:50 82° NW 03:59:41 10° NE visible
01 Mar 4.8 05:40:06 12° W 05:44:51 26° NNW 05:50:37 10° NNE visible
02 Mar 4.1 03:09:23 54° ENE 03:09:23 54° ENE 03:14:45 10° NE visible
02 Mar 4.4 04:56:50 25° WNW 04:59:31 34° NW 05:05:45 10° NNE visible
03 Mar 5.1 02:26:03 30° ENE 02:26:03 30° ENE 02:29:39 10° NE visible
03 Mar 3.9 04:13:30 44° WNW 04:14:19 46° NW 04:20:55 10° NNE visible
03 Mar 5.3 06:02:24 10° WNW 06:07:08 20° NNW 06:12:09 10° NNE visible
04 Mar 5.9 01:42:41 16° ENE 01:42:41 16° ENE 01:44:18 10° ENE visible
04 Mar 3.8 03:30:07 60° N 03:30:07 60° N 03:36:06 10° NE visible
04 Mar 5.0 05:17:33 14° WNW 05:21:36 23° NNW 05:27:05 10° NNE visible
05 Mar 4.5 02:46:43 44° NE 02:46:43 44° NE 02:51:13 10° NE visible
05 Mar 4.7 04:34:08 25° WNW 04:36:12 29° NNW 04:42:09 10° NNE visible
06 Mar 5.3 02:03:16 27° NE 02:03:16 27° NE 02:06:14 10° NE visible
06 Mar 4.3 03:50:42 38° NW 03:50:54 38° NW 03:57:18 10° NNE visible
06 Mar 5.4 05:39:27 10° NW 05:44:00 19° N 05:48:48 10° NNE visible
07 Mar 5.9 01:19:48 15° ENE 01:19:48 15° ENE 01:21:03 10° NE visible
07 Mar 4.3 03:07:13 45° N 03:07:13 45° N 03:12:30 10° NNE visible
07 Mar 5.3 04:54:39 14° WNW 04:58:24 21° NNW 05:03:36 10° NNE visible
